TimeCDT,TemperatureF,Dew PointF,Humidity,Sea Level PressureIn,VisibilityMPH,Wind Direction,Wind SpeedMPH,Gust SpeedMPH,PrecipitationIn,Events,Conditions,WindDirDegrees,DateUTC
12:53 AM,50.0,50.0,100,30.01,9.0,Calm,Calm,-,N/A,,Overcast,0,2013-10-03 05:53:00
1:53 AM,48.0,46.9,96,29.99,10.0,Calm,Calm,-,N/A,,Clear,0,2013-10-03 06:53:00
2:53 AM,50.0,48.9,96,29.98,10.0,Calm,Calm,-,N/A,,Scattered Clouds,0,2013-10-03 07:53:00
3:53 AM,50.0,50.0,100,29.96,10.0,Calm,Calm,-,N/A,,Overcast,0,2013-10-03 08:53:00
4:53 AM,48.9,48.9,100,29.95,8.0,Calm,Calm,-,N/A,,Clear,0,2013-10-03 09:53:00
5:48 AM,48.2,48.2,100,29.94,8.0,Calm,Calm,-,N/A,,Mostly Cloudy,0,2013-10-03 10:48:00
5:53 AM,50.0,50.0,100,29.94,9.0,Calm,Calm,-,N/A,,Mostly Cloudy,0,2013-10-03 10:53:00
6:00 AM,51.8,51.8,100,29.93,10.0,Calm,Calm,-,N/A,,Overcast,0,2013-10-03 11:00:00
6:11 AM,51.8,51.8,100,29.93,10.0,Calm,Calm,-,N/A,,Overcast,0,2013-10-03 11:11:00
6:53 AM,55.0,54.0,96,29.94,10.0,Calm,Calm,-,N/A,,Overcast,0,2013-10-03 11:53:00
7:22 AM,57.2,57.2,100,29.95,1.8,WNW,8.1,20.7,N/A,,Overcast,290,2013-10-03 12:22:00
7:32 AM,59.0,59.0,100,29.96,0.8,WSW,6.9,-,N/A,,Overcast,250,2013-10-03 12:32:00
7:40 AM,59.0,59.0,100,29.96,1.2,WSW,4.6,-,N/A,,Overcast,240,2013-10-03 12:40:00
7:53 AM,60.1,60.1,100,29.95,1.0,SSE,3.5,-,N/A,,Overcast,160,2013-10-03 12:53:00
8:31 AM,60.8,60.8,100,29.92,2.0,South,8.1,-,N/A,,Overcast,180,2013-10-03 13:31:00
8:45 AM,62.6,62.6,100,29.92,1.8,South,6.9,-,N/A,,Overcast,180,2013-10-03 13:45:00
8:53 AM,62.1,62.1,100,29.92,2.0,South,6.9,-,N/A,,Overcast,180,2013-10-03 13:53:00
9:12 AM,62.6,62.6,100,29.91,3.0,SSE,6.9,-,N/A,,Overcast,160,2013-10-03 14:12:00
9:53 AM,64.9,64.0,97,29.91,4.0,South,11.5,-,N/A,,Overcast,190,2013-10-03 14:53:00
10:20 AM,66.2,64.4,94,29.91,8.0,SSW,11.5,-,N/A,,Overcast,210,2013-10-03 15:20:00
10:53 AM,68.0,64.0,87,29.93,8.0,SSW,9.2,-,N/A,,Overcast,210,2013-10-03 15:53:00
11:30 AM,69.8,64.4,83,29.92,9.0,SSW,5.8,-,N/A,,Scattered Clouds,200,2013-10-03 16:30:00
11:53 AM,73.0,64.0,73,29.91,10.0,SW,6.9,-,N/A,,Clear,230,2013-10-03 16:53:00
12:53 PM,75.0,64.9,71,29.89,10.0,SW,6.9,-,N/A,,Partly Cloudy,220,2013-10-03 17:53:00
1:34 PM,75.2,66.2,73,29.88,10.0,WSW,6.9,-,N/A,,Mostly Cloudy,250,2013-10-03 18:34:00
1:53 PM,72.0,66.0,81,29.87,10.0,ESE,4.6,-,N/A,,Mostly Cloudy,120,2013-10-03 18:53:00
2:09 PM,73.4,66.2,78,29.87,10.0,SE,5.8,-,N/A,,Scattered Clouds,130,2013-10-03 19:09:00
2:53 PM,73.9,66.9,79,29.87,10.0,Calm,Calm,-,N/A,,Partly Cloudy,0,2013-10-03 19:53:00
3:09 PM,73.4,64.4,73,29.87,10.0,North,5.8,-,N/A,,Mostly Cloudy,350,2013-10-03 20:09:00
3:53 PM,70.0,64.9,84,29.86,8.0,NNE,12.7,-,N/A,,Mostly Cloudy,30,2013-10-03 20:53:00
4:01 PM,68.0,62.6,83,29.87,9.0,ENE,11.5,-,N/A,,Mostly Cloudy,60,2013-10-03 21:01:00
4:33 PM,64.4,62.6,94,29.87,6.0,NE,10.4,-,N/A,,Overcast,50,2013-10-03 21:33:00
4:43 PM,64.4,62.6,94,29.87,5.0,NE,9.2,-,N/A,,Overcast,40,2013-10-03 21:43:00
4:53 PM,64.0,63.0,96,29.88,4.0,NE,10.4,-,N/A,,Overcast,50,2013-10-03 21:53:00
5:14 PM,64.4,64.4,100,29.88,1.5,ENE,6.9,-,N/A,,Overcast,60,2013-10-03 22:14:00
5:22 PM,62.6,62.6,100,29.88,0.2,NE,8.1,-,N/A,Fog,Fog,50,2013-10-03 22:22:00
5:33 PM,64.4,64.4,100,29.88,1.0,NE,8.1,-,N/A,,Overcast,50,2013-10-03 22:33:00
5:48 PM,64.4,64.4,100,29.88,0.2,NE,11.5,-,N/A,Fog,Fog,50,2013-10-03 22:48:00
5:53 PM,63.0,63.0,100,29.88,0.2,ENE,10.4,-,N/A,Fog,Fog,60,2013-10-03 22:53:00
6:23 PM,60.8,60.8,100,29.89,0.2,NE,11.5,-,N/A,Fog,Fog,50,2013-10-03 23:23:00
6:53 PM,61.0,61.0,100,29.89,0.5,NE,11.5,-,N/A,Fog,Fog,50,2013-10-03 23:53:00
7:53 PM,61.0,61.0,100,29.91,0.8,NE,12.7,-,N/A,,Mist,40,2013-10-04 00:53:00
8:53 PM,60.1,60.1,100,29.90,0.5,NE,13.8,-,N/A,Fog,Fog,50,2013-10-04 01:53:00
9:53 PM,59.0,59.0,100,29.90,0.8,North,10.4,-,0.01,Rain,Light Rain,10,2013-10-04 02:53:00
10:12 PM,59.0,59.0,100,29.90,1.0,North,9.2,-,0.03,Rain,Rain,350,2013-10-04 03:12:00
10:25 PM,59.0,59.0,100,29.90,-9999.0,North,-9999.0,-,0.06,,Unknown,0,2013-10-04 03:25:00
10:36 PM,59.0,59.0,100,29.91,-9999.0,North,-9999.0,-,0.06,Thunderstorm,Unknown,0,2013-10-04 03:36:00
11:53 PM,-9999,-9999,N/A,29.90,-9999.0,North,-9999.0,-,N/A,,Unknown,0,2013-10-04 04:53:00